This is the latest recevied weather packets stored in our database for station/object DG4DAA-13. If no packets are shown the sender has not sent any weather packets the latest 10 day(s).
| Time | Temp. | Humidity | Pressure | Rain* | Wind** | Luminosity | Snow |
|---|---|---|---|---|---|---|---|
| 1777975700 | 15.56° C | 85% | 1011.7 hPa | 0 mm | - | - | - |
| 1777973901 | 15° C | 86% | 1011.8 hPa | 0 mm | - | - | - |
| 1777972101 | 15° C | 84% | 1011.9 hPa | 0 mm | - | - | - |
| 1777970301 | 15.56° C | 85% | 1011.9 hPa | 0 mm | - | - | - |
| 1777968501 | 15° C | 87% | 1011.9 hPa | 0 mm | - | - | - |
| 1777966701 | 14.44° C | 92% | 1012.1 hPa | 0 mm | - | - | - |
| 1777964901 | 13.89° C | 92% | 1012.3 hPa | 0 mm | - | - | - |
| 1777963101 | 13.89° C | 92% | 1012.2 hPa | 0 mm | - | - | - |
| 1777961301 | 13.89° C | 93% | 1012.3 hPa | 0 mm | - | - | - |
| 1777959501 | 13.33° C | 93% | 1012.3 hPa | 0 mm | - | - | - |
| 1777957734 | 12.78° C | 92% | 1012.3 hPa | 0 mm | - | - | - |
| 1777957701 | 12.78° C | 92% | 1012.3 hPa | 0 mm | - | - | - |
| 1777955901 | 12.78° C | 92% | 1012.3 hPa | 0 mm | - | - | - |
| 1777954101 | 12.78° C | 92% | 1012.3 hPa | 0 mm | - | - | - |
| 1777952301 | 12.78° C | 92% | 1012.5 hPa | 0 mm | - | - | - |
| 1777950501 | 12.78° C | 92% | 1012.6 hPa | 0 mm | - | - | - |
| 1777948701 | 12.78° C | 92% | 1012.7 hPa | 0 mm | - | - | - |
| 1777946901 | 12.78° C | 92% | 1013.1 hPa | 0 mm | - | - | - |
| 1777945101 | 12.78° C | 92% | 1013.1 hPa | 0 mm | - | - | - |
| 1777943301 | 13.33° C | 91% | 1013.3 hPa | 0 mm | - | - | - |
| 1777941502 | 13.33° C | 91% | 1013.6 hPa | 0 mm | - | - | - |
| 1777939702 | 13.33° C | 91% | 1013.9 hPa | 0 mm | - | - | - |
| 1777936142 | 13.33° C | 91% | 1014.3 hPa | 0.25 mm | - | - | - |
| 1777936102 | 13.33° C | 91% | 1014.3 hPa | 0.25 mm | - | - | - |
| 1777934302 | 13.33° C | 91% | 1014.7 hPa | 0 mm | - | - | - |
* Rain latest hour (hover to see other rain measurements)
** Current wind speed in m/s (hover to see current wind gust speed)